This is the latest recevied weather packets stored in our database for station/object KY4LEX. If no packets are shown the sender has not sent any weather packets the latest 10 day(s).
| Time | Temp. | Humidity | Pressure | Rain* | Wind** | Luminosity | Snow |
|---|---|---|---|---|---|---|---|
| 1778070289 | 9.44° C | 97% | 1016 hPa | 0 mm | - | 24 W/m² | - |
| 1778069987 | 9.44° C | 97% | 1015.9 hPa | 0 mm | - | 22 W/m² | - |
| 1778069684 | 9.44° C | 97% | 1015.6 hPa | 0 mm | - | 25 W/m² | - |
| 1778069380 | 9.44° C | 97% | 1015.5 hPa | 0 mm | - | 23 W/m² | - |
| 1778069078 | 9.44° C | 97% | 1015.2 hPa | 0 mm | - | 24 W/m² | - |
| 1778068775 | 10° C | 97% | 1015.2 hPa | 0 mm | - | 23 W/m² | - |
| 1778068473 | 10° C | 97% | 1015.4 hPa | 0 mm | - | 18 W/m² | - |
| 1778068171 | 10° C | 97% | 1015.2 hPa | 0 mm | - | 16 W/m² | - |
| 1778067868 | 10° C | 97% | 1015.1 hPa | 0 mm | - | 21 W/m² | - |
| 1778067567 | 10° C | 97% | 1015.2 hPa | 0 mm | - | 18 W/m² | - |
| 1778067265 | 10° C | 97% | 1015.2 hPa | 0 mm | - | 16 W/m² | - |
| 1778066961 | 10° C | 97% | 1015.2 hPa | 0 mm | - | 12 W/m² | - |
| 1778066659 | 10° C | 97% | 1014.9 hPa | 0 mm | - | 12 W/m² | - |
| 1778066356 | 10° C | 97% | 1014.5 hPa | 0 mm | - | 13 W/m² | - |
| 1778066054 | 10° C | 97% | 1014.6 hPa | 0 mm | - | 11 W/m² | - |
| 1778065751 | 10° C | 97% | 1014.3 hPa | 0 mm | - | 9 W/m² | - |
| 1778065448 | 10° C | 97% | 1014.2 hPa | 0 mm | - | 5 W/m² | - |
| 1778065145 | 10° C | 97% | 1014.3 hPa | 0 mm | - | 4 W/m² | - |
| 1778064841 | 10.56° C | 97% | 1013.9 hPa | 0 mm | - | 3 W/m² | - |
| 1778064539 | 10.56° C | 97% | 1014.3 hPa | 0 mm | - | 2 W/m² | - |
| 1778064236 | 10.56° C | 97% | 1013.9 hPa | 0 mm | - | 1 W/m² | - |
| 1778063934 | 10.56° C | 97% | 1013.8 hPa | 0 mm | - | 1 W/m² | - |
| 1778063631 | 10.56° C | 97% | 1013.7 hPa | 0 mm | - | 0 W/m² | - |
| 1778063328 | 10.56° C | 97% | 1013.8 hPa | 0 mm | - | 0 W/m² | - |
| 1778063026 | 11.11° C | 97% | 1013.5 hPa | 0 mm | - | 0 W/m² | - |
* Rain latest hour (hover to see other rain measurements)
** Current wind speed in m/s (hover to see current wind gust speed)